TimePST,TemperatureF,Dew PointF,Humidity,Sea Level PressureIn,VisibilityMPH,Wind Direction,Wind SpeedMPH,Gust SpeedMPH,PrecipitationIn,Events,Conditions,WindDirDegrees,DateUTC
12:53 AM,42.1,34.0,73,30.16,4.0,Calm,Calm,-,N/A,,Haze,0,2014-01-07 08:53:00
1:53 AM,43.0,36.0,76,30.17,4.0,Calm,Calm,-,N/A,,Haze,0,2014-01-07 09:53:00
2:53 AM,44.1,37.0,76,30.18,4.0,NNW,3.5,-,N/A,,Haze,330,2014-01-07 10:53:00
3:53 AM,42.1,36.0,79,30.17,4.0,NNW,5.8,-,N/A,,Haze,340,2014-01-07 11:53:00
4:53 AM,43.0,37.0,80,30.17,4.0,NNW,5.8,-,N/A,,Haze,340,2014-01-07 12:53:00
5:53 AM,39.9,35.1,83,30.17,4.0,SE,3.5,-,N/A,,Haze,130,2014-01-07 13:53:00
6:53 AM,36.0,30.9,82,30.17,4.0,South,4.6,-,N/A,,Haze,190,2014-01-07 14:53:00
7:34 AM,37.0,33.1,86,30.17,2.5,SW,3.5,-,N/A,,Clear,220,2014-01-07 15:34:00
7:53 AM,37.9,34.0,86,30.19,2.0,WSW,3.5,-,N/A,,Clear,240,2014-01-07 15:53:00
8:53 AM,42.1,37.0,82,30.20,2.5,Calm,Calm,-,N/A,,Haze,0,2014-01-07 16:53:00
9:36 AM,46.9,37.9,71,30.20,3.0,Calm,Calm,-,N/A,,Haze,0,2014-01-07 17:36:00
9:53 AM,48.0,37.9,68,30.20,3.0,East,3.5,-,N/A,,Haze,90,2014-01-07 17:53:00
10:53 AM,52.0,39.0,61,30.19,3.0,Calm,Calm,-,N/A,,Haze,0,2014-01-07 18:53:00
11:53 AM,55.9,37.9,51,30.17,4.0,Calm,Calm,-,N/A,,Haze,0,2014-01-07 19:53:00
12:53 PM,57.9,37.9,47,30.16,4.0,NNW,6.9,-,N/A,,Haze,340,2014-01-07 20:53:00
1:53 PM,57.9,37.0,46,30.14,5.0,North,3.5,-,N/A,,Haze,360,2014-01-07 21:53:00
2:53 PM,60.1,36.0,41,30.13,5.0,North,3.5,-,N/A,,Haze,360,2014-01-07 22:53:00
3:53 PM,60.1,36.0,41,30.13,6.0,Calm,Calm,-,N/A,,Haze,0,2014-01-07 23:53:00
4:53 PM,57.0,36.0,45,30.13,5.0,Calm,Calm,-,N/A,,Haze,0,2014-01-08 00:53:00
5:53 PM,53.1,37.0,55,30.13,6.0,West,4.6,-,N/A,,Haze,270,2014-01-08 01:53:00
6:53 PM,48.0,35.1,61,30.14,6.0,Calm,Calm,-,N/A,,Haze,0,2014-01-08 02:53:00
7:53 PM,45.0,34.0,65,30.14,5.0,Calm,Calm,-,N/A,,Haze,0,2014-01-08 03:53:00
8:53 PM,39.9,30.9,70,30.15,5.0,ESE,5.8,-,N/A,,Haze,120,2014-01-08 04:53:00
9:53 PM,43.0,34.0,71,30.17,4.0,Calm,Calm,-,N/A,,Haze,0,2014-01-08 05:53:00
10:53 PM,41.0,34.0,76,30.18,4.0,Calm,Calm,-,N/A,,Haze,0,2014-01-08 06:53:00
11:53 PM,41.0,34.0,76,30.17,4.0,Calm,Calm,-,N/A,,Haze,0,2014-01-08 07:53:00